Location: Elkol
(41.7238°N, 110.6124°W)
Time: 11:34:21
(UTC+00:00)

Envisat - Visible Passes

Search period start: 18 January 2022 00:00
Search period end: 28 January 2022 00:00
Orbit: 764 x 766 km, 98.2° (Epoch: 17 January)

Date Brightness Start Highest point End Pass type
(mag) Time Alt. Az. Time Alt. Az. Time Alt. Az.
18 Jan 5.6 11:02:50 10° NE 11:05:51 16° E 11:08:50 10° SE visible
18 Jan 2.9 12:40:15 10° N 12:45:16 62° WNW 12:50:15 10° SSW visible
19 Jan 3.4 12:03:23 10° NNE 12:08:25 60° E 12:13:25 10° S visible
19 Jan 4.3 13:43:38 10° NNW 13:46:56 18° WNW 13:50:12 10° WSW visible
20 Jan 6.3 01:00:55 10° WSW 01:02:37 12° W 01:04:19 10° WNW visible
20 Jan 4.9 11:27:05 10° NE 11:31:22 27° E 11:35:38 10° SSE visible
20 Jan 3.5 13:05:48 10° N 13:10:25 36° WNW 13:15:00 10° SW visible
21 Jan 5.9 10:52:13 10° ENE 10:54:07 12° E 10:56:00 10° ESE visible
21 Jan 2.8 12:28:36 10° N 12:33:42 78° WNW 12:38:46 10° SSW visible
21 Jan 4.8 14:11:07 10° NW 14:11:50 10° WNW 14:12:33 10° WNW visible
22 Jan 3.9 11:51:53 10° NNE 11:56:48 47° E 12:01:40 10° S visible
22 Jan 4.1 13:31:39 10° NNW 13:35:28 22° WNW 13:39:16 10° WSW visible
23 Jan 5.2 11:15:50 10° NE 11:19:41 21° E 11:23:31 10° SE visible
23 Jan 3.2 12:54:04 10° N 12:58:53 45° WNW 13:03:42 10° SW visible
24 Jan 2.9 12:17:00 10° NNE 12:22:07 83° ESE 12:27:11 10° SSW visible
24 Jan 4.6 13:58:08 10° NNW 14:00:25 13° WNW 14:02:43 10° W visible
25 Jan 4.3 11:40:27 10° NNE 11:45:09 37° E 11:49:49 10° SSE visible
25 Jan 3.8 13:19:46 10° N 13:23:59 27° WNW 13:28:11 10° WSW visible
26 Jan 5.6 11:04:45 10° NE 11:07:59 17° E 11:11:12 10° SE visible
26 Jan 3.0 12:42:22 10° N 12:47:21 57° WNW 12:52:19 10° SSW visible
27 Jan 3.3 12:05:27 10° NNE 12:10:31 65° ESE 12:15:33 10° S visible
27 Jan 4.4 13:45:53 10° NNW 13:48:58 16° WNW 13:52:05 10° W visible
